• In Hungary
  • List of Countries
  • For 7 days
  • Water Temperature
  • Satellite Maps
  • Weather Map
  • News
  • Weather Widgets
  • user-avatar
    Login

    Hourly Weather Falemychi

    Today, 23 October, Tuesday

    Time Temperature Precipitation Wind Pressure Humidity
    00:00 +5°C° 0.1 mm 3 mps 748 mmHg 79%
    01:00 +5°C° 0.1 mm 4 mps 748 mmHg 79%
    02:00 +5°C° 0 mm 3 mps 747 mmHg 80%
    03:00 +7°C° 0.1 mm 3 mps 747 mmHg 82%
    04:00 +6°C° 0.1 mm 4 mps 747 mmHg 84%
    05:00 +6°C° 0.1 mm 4 mps 747 mmHg 86%
    06:00 +5°C° 0 mm 4 mps 746 mmHg 88%
    07:00 +5°C° 0 mm 4 mps 746 mmHg 90%
    08:00 +4°C° 0 mm 4 mps 746 mmHg 92%
    09:00 +5°C° 0 mm 5 mps 745 mmHg 83%
    10:00 +5°C° 0 mm 6 mps 744 mmHg 75%
    11:00 +7°C° 0 mm 6 mps 744 mmHg 67%
    12:00 +6°C° 0.1 mm 7 mps 743 mmHg 64%
    13:00 +6°C° 0.1 mm 7 mps 741 mmHg 62%
    14:00 +7°C° 0.1 mm 8 mps 740 mmHg 60%
    15:00 +6°C° 0.7 mm 8 mps 739 mmHg 63%
    16:00 +6°C° 0.7 mm 8 mps 737 mmHg 67%
    17:00 +6°C° 0.7 mm 9 mps 736 mmHg 70%
    18:00 +6°C° 0.6 mm 9 mps 735 mmHg 72%
    19:00 +6°C° 0.6 mm 9 mps 734 mmHg 74%
    20:00 +5°C° 0.6 mm 10 mps 732 mmHg 77%
    21:00 +6°C° 0.6 mm 10 mps 731 mmHg 79%
    22:00 +6°C° 0.6 mm 10 mps 731 mmHg 81%
    23:00 +6°C° 0.6 mm 9 mps 730 mmHg 83%

    Tomorrow, 24 October, Wednesday

    Time Temperature Precipitation Wind Pressure Humidity
    00:00 +6°C° 0.3 mm 9 mps 729 mmHg 82%
    01:00 +6°C° 0.3 mm 8 mps 728 mmHg 81%
    02:00 +6°C° 0.3 mm 7 mps 727 mmHg 81%
    03:00 +5°C° 0 mm 7 mps 727 mmHg 81%
    04:00 +5°C° 0 mm 7 mps 727 mmHg 80%
    05:00 +4°C° 0 mm 7 mps 726 mmHg 80%
    06:00 +4°C° 0.3 mm 8 mps 726 mmHg 78%
    07:00 +4°C° 0.3 mm 8 mps 726 mmHg 76%
    08:00 +4°C° 0.3 mm 8 mps 726 mmHg 74%
    09:00 +4°C° 0.9 mm 8 mps 727 mmHg 74%
    10:00 +3°C° 0.9 mm 9 mps 727 mmHg 73%
    11:00 +3°C° 0.9 mm 9 mps 728 mmHg 73%
    12:00 +3°C° 0.2 mm 10 mps 728 mmHg 68%
    13:00 +3°C° 0.2 mm 10 mps 729 mmHg 63%
    14:00 +4°C° 0.2 mm 11 mps 729 mmHg 58%
    15:00 +3°C° 0.5 mm 11 mps 729 mmHg 61%
    16:00 +3°C° 0.5 mm 11 mps 729 mmHg 65%
    17:00 +2°C° 0.5 mm 11 mps 729 mmHg 69%
    18:00 +2°C° 0.2 mm 12 mps 730 mmHg 69%
    19:00 +3°C° 0.2 mm 12 mps 730 mmHg 70%
    20:00 +3°C° 0.2 mm 12 mps 731 mmHg 70%
    21:00 +3°C° 0.2 mm 12 mps 731 mmHg 71%
    22:00 +3°C° 0.2 mm 11 mps 732 mmHg 71%
    23:00 +3°C° 0.2 mm 11 mps 733 mmHg 72%

    Day after tomorrow, 25 October, Thursday

    Time Temperature Precipitation Wind Pressure Humidity
    00:00 +3°C° 0.1 mm 11 mps 733 mmHg 72%
    01:00 +3°C° 0.1 mm 10 mps 734 mmHg 72%
    02:00 +3°C° 0.1 mm 10 mps 735 mmHg 71%
    03:00 +2°C° 0 mm 9 mps 735 mmHg 72%
    04:00 +2°C° 0 mm 9 mps 736 mmHg 73%
    05:00 +2°C° 0 mm 8 mps 736 mmHg 74%
    06:00 +1°C° 0 mm 8 mps 737 mmHg 75%
    07:00 +2°C° 0 mm 7 mps 737 mmHg 75%
    08:00 +2°C° 0 mm 7 mps 737 mmHg 75%
    09:00 +3°C° 0 mm 7 mps 737 mmHg 71%
    10:00 +3°C° 0 mm 7 mps 737 mmHg 66%
    11:00 +4°C° 0 mm 7 mps 737 mmHg 62%
    12:00 +4°C° 0.4 mm 7 mps 736 mmHg 67%
    13:00 +4°C° 0.4 mm 7 mps 735 mmHg 71%
    14:00 +3°C° 0.4 mm 6 mps 735 mmHg 75%
    15:00 +4°C° 0.6 mm 7 mps 734 mmHg 79%
    16:00 +4°C° 0.6 mm 7 mps 733 mmHg 83%
    17:00 +5°C° 0.6 mm 7 mps 732 mmHg 88%
    18:00 +5°C° 0.3 mm 8 mps 732 mmHg 84%
    19:00 +5°C° 0.3 mm 8 mps 732 mmHg 80%
    20:00 +6°C° 0.3 mm 8 mps 732 mmHg 77%
    21:00 +5°C° 0.1 mm 8 mps 733 mmHg 78%
    22:00 +5°C° 0.1 mm 8 mps 733 mmHg 79%
    23:00 +5°C° 0.1 mm 8 mps 734 mmHg 80%

    26 October, Friday

    Time Temperature Precipitation Wind Pressure Humidity
    00:00 +4°C° 0 mm 7 mps 735 mmHg 82%
    01:00 +4°C° 0 mm 7 mps 735 mmHg 84%
    02:00 +4°C° 0 mm 6 mps 736 mmHg 85%
    03:00 +3°C° 0 mm 6 mps 736 mmHg 87%
    04:00 +3°C° 0 mm 6 mps 737 mmHg 88%
    05:00 +3°C° 0 mm 6 mps 737 mmHg 90%
    06:00 +3°C° 0 mm 6 mps 738 mmHg 89%
    07:00 +3°C° 0 mm 6 mps 738 mmHg 88%
    08:00 +4°C° 0 mm 6 mps 738 mmHg 87%
    09:00 +4°C° 0 mm 6 mps 739 mmHg 85%
    10:00 +4°C° 0 mm 6 mps 739 mmHg 83%
    11:00 +5°C° 0 mm 6 mps 739 mmHg 81%
    12:00 +5°C° 0 mm 6 mps 739 mmHg 78%
    13:00 +7°C° 0 mm 5 mps 740 mmHg 75%
    14:00 +8°C° 0 mm 5 mps 740 mmHg 72%
    15:00 +7°C° 0 mm 4 mps 740 mmHg 73%
    16:00 +8°C° 0 mm 3 mps 740 mmHg 74%
    17:00 +8°C° 0 mm 2 mps 740 mmHg 75%
    18:00 +7°C° 0 mm 2 mps 740 mmHg 76%
    19:00 +7°C° 0 mm 2 mps 740 mmHg 78%
    20:00 +7°C° 0 mm 3 mps 740 mmHg 80%
    21:00 +5°C° 0 mm 3 mps 740 mmHg 83%
    22:00 +5°C° 0 mm 3 mps 740 mmHg 87%
    23:00 +5°C° 0 mm 3 mps 739 mmHg 90%

    27 October, Saturday

    Time Temperature Precipitation Wind Pressure Humidity
    00:00 +5°C° 0 mm 3 mps 739 mmHg 91%
    01:00 +5°C° 0 mm 3 mps 739 mmHg 91%
    02:00 +5°C° 0 mm 3 mps 738 mmHg 92%
    03:00 +5°C° 0 mm 4 mps 738 mmHg 92%
    04:00 +5°C° 0 mm 4 mps 737 mmHg 91%
    05:00 +5°C° 0 mm 4 mps 737 mmHg 91%
    06:00 +6°C° 0 mm 4 mps 737 mmHg 90%
    07:00 +7°C° 0 mm 5 mps 737 mmHg 89%
    08:00 +7°C° 0 mm 5 mps 736 mmHg 88%
    09:00 +8°C° 0 mm 5 mps 736 mmHg 82%
    10:00 +10°C° 0 mm 5 mps 736 mmHg 77%
    11:00 +11°C° 0 mm 6 mps 736 mmHg 72%
    12:00 +11°C° 0 mm 6 mps 737 mmHg 68%
    13:00 +13°C° 0 mm 5 mps 737 mmHg 65%
    14:00 +13°C° 0 mm 5 mps 737 mmHg 61%
    15:00 +12°C° 0 mm 4 mps 737 mmHg 65%
    16:00 +11°C° 0 mm 4 mps 737 mmHg 69%
    17:00 +10°C° 0 mm 3 mps 737 mmHg 73%
    18:00 +9°C° 0 mm 2 mps 738 mmHg 76%
    19:00 +9°C° 0 mm 2 mps 738 mmHg 78%
    20:00 +8°C° 0 mm 2 mps 738 mmHg 80%
    21:00 +8°C° 0.5 mm 2 mps 739 mmHg 81%
    22:00 +9°C° 0.5 mm 1 mps 739 mmHg 83%
    23:00 +8°C° 0.5 mm 1 mps 739 mmHg 84%

    28 October, Sunday

    Time Temperature Precipitation Wind Pressure Humidity
    00:00 +8°C° 0.3 mm 1 mps 739 mmHg 84%
    01:00 +7°C° 0.3 mm 0 mps 740 mmHg 84%
    02:00 +7°C° 0.3 mm 0 mps 740 mmHg 84%
    03:00 +8°C° 0.5 mm 1 mps 740 mmHg 85%
    04:00 +7°C° 0.5 mm 1 mps 739 mmHg 85%
    05:00 +7°C° 0.5 mm 1 mps 739 mmHg 85%
    06:00 +6°C° 0.9 mm 2 mps 739 mmHg 86%
    07:00 +5°C° 0.9 mm 3 mps 739 mmHg 86%
    08:00 +5°C° 0.9 mm 4 mps 739 mmHg 87%
    09:00 +5°C° 1 mm 4 mps 739 mmHg 87%
    10:00 +5°C° 1 mm 5 mps 739 mmHg 87%
    11:00 +5°C° 1 mm 5 mps 739 mmHg 87%
    12:00 +5°C° 0.2 mm 5 mps 739 mmHg 87%
    13:00 +5°C° 0.2 mm 5 mps 738 mmHg 88%
    14:00 +5°C° 0.2 mm 5 mps 738 mmHg 88%
    15:00 +5°C° 1 mm 5 mps 738 mmHg 90%
    16:00 +5°C° 1 mm 5 mps 738 mmHg 91%
    17:00 +5°C° 1 mm 5 mps 738 mmHg 93%
    18:00 +6°C° 1.2 mm 5 mps 737 mmHg 93%
    19:00 +6°C° 1.2 mm 4 mps 737 mmHg 93%
    20:00 +6°C° 1.2 mm 4 mps 737 mmHg 94%
    21:00 +7°C° 0.5 mm 4 mps 737 mmHg 93%
    22:00 +8°C° 0.5 mm 4 mps 737 mmHg 92%
    23:00 +8°C° 0.5 mm 4 mps 736 mmHg 91%

    29 October, Monday

    Time Temperature Precipitation Wind Pressure Humidity
    00:00 +10°C° 0.2 mm 4 mps 736 mmHg 89%
    01:00 +11°C° 0.2 mm 4 mps 736 mmHg 88%
    02:00 +11°C° 0.2 mm 4 mps 735 mmHg 86%
    03:00 +11°C° 0 mm 4 mps 735 mmHg 85%
    04:00 +11°C° 0 mm 4 mps 734 mmHg 83%
    05:00 +12°C° 0 mm 4 mps 734 mmHg 81%
    06:00 +12°C° 0 mm 4 mps 734 mmHg 80%
    07:00 +12°C° 0 mm 4 mps 734 mmHg 78%
    08:00 +12°C° 0 mm 4 mps 733 mmHg 76%
    09:00 +14°C° 0 mm 4 mps 733 mmHg 71%
    10:00 +15°C° 0 mm 5 mps 733 mmHg 66%
    11:00 +17°C° 0 mm 5 mps 733 mmHg 61%
    12:00 +17°C° 0 mm 5 mps 732 mmHg 60%
    13:00 +19°C° 0 mm 5 mps 732 mmHg 60%
    14:00 +19°C° 0 mm 5 mps 731 mmHg 59%
    15:00 +18°C° 0 mm 4 mps 731 mmHg 65%
    16:00 +17°C° 0 mm 4 mps 731 mmHg 71%
    17:00 +16°C° 0 mm 3 mps 731 mmHg 77%
    18:00 +14°C° 0 mm 3 mps 731 mmHg 77%
    19:00 +14°C° 0 mm 3 mps 731 mmHg 78%
    20:00 +13°C° 0 mm 3 mps 731 mmHg 78%
    21:00 +13°C° 0 mm 3 mps 731 mmHg 78%
    22:00 +13°C° 0 mm 3 mps 731 mmHg 77%
    23:00 +14°C° 0 mm 2 mps 731 mmHg 76%
    Show more